Flag Weather past 2 weeks in Leesburg, Virginia, U.S.A.

Now
36 °F

Broken clouds.


Feels Like: 30 °F
Forecast: 24 / 36 °F
Wind: 7 mph from Northwest

Location: Leesburg / Godfrey

Current Time: Nov 28, 2014 at 12:25:05 PM

Latest Report: Nov 28, 2014 at 11:35 AM


Visibility: 10 mi

Pressure: 30.31 "Hg

Humidity: 70%

Dew point: 27 °F

Location of LeesburgLocation

Historic Weather in Leesburg — Graph

°F

Leesburg temperature yesterday

Maximum temperature yesterday: 43 °F (at 11:55 AM)
Minimum temperature yesterday: 34 °F (at 12:15 AM)
Average temperature yesterday: 37 °F

Past Weeks' High & Low Weather Summary

 TemperatureHumidityPressure
High70 °F (Nov 24, 12:55 PM)100% (Nov 13, 7:35 PM)30.56 "Hg (Nov 13, 7:35 PM)
Low16 °F (Nov 19, 6:55 AM)32% (Nov 22, 2:15 PM)29.53 "Hg (Nov 17, 1:55 PM)
Average39 °F68%30.12 "Hg
* Reported Nov 13 11:15 AM — Nov 28 11:15 AM, Leesburg, Weather by CustomWeather, © 2014

Note: Actual official high and low records may vary slightly from our data, if they occured in-between our weather recording intervals... More about our weather records

Advertising

Leesburg weather history for previous 24 hours

 ConditionsComfort  
Time TempWeatherWind HumidityBarometerVisibility
11:15 AM
Nov 28
36 °FMore clouds than sun.9 mph70%30.31 "Hg10 mi
10:55 AM37 °FBroken clouds.9 mph70%30.32 "Hg10 mi
10:15 AM34 °FPartly sunny.12 mph81%30.33 "Hg10 mi
9:55 AM32 °FCloudy.13 mph87%30.33 "Hg10 mi
9:15 AM34 °FOvercast.8 mph70%30.32 "Hg10 mi
8:55 AM34 °FMostly cloudy.12 mph70%30.32 "Hg10 mi
8:35 AM34 °FMore clouds than sun.7 mph70%30.31 "Hg10 mi
8:15 AM34 °FMore clouds than sun.8 mph70%30.30 "Hg10 mi
7:55 AM32 °FMore clouds than sun.12 mph80%30.29 "Hg10 mi
7:35 AM32 °FMore clouds than sun.12 mph80%30.29 "Hg10 mi
7:15 AM32 °FCloudy.8 mph80%30.28 "Hg10 mi
6:55 AM34 °FOvercast.7 mph75%30.28 "Hg10 mi
6:35 AM34 °FMostly cloudy.7 mph75%30.27 "Hg10 mi
6:15 AM32 °FMostly cloudy.7 mph80%30.26 "Hg10 mi
5:55 AM34 °FMostly cloudy.8 mph81%30.26 "Hg10 mi
5:15 AM32 °FOvercast.9 mph80%30.24 "Hg10 mi
4:55 AM32 °FMostly cloudy.9 mph80%30.24 "Hg10 mi
4:15 AM34 °FClear.12 mph75%30.22 "Hg10 mi
3:55 AM32 °FClear.10 mph80%30.22 "Hg10 mi
3:35 AM32 °FClear.6 mph80%30.22 "Hg10 mi
3:15 AM32 °FClear.9 mph80%30.22 "Hg10 mi
2:55 AM32 °FClear.7 mph80%30.21 "Hg10 mi
2:35 AM32 °FClear.6 mph80%30.21 "Hg10 mi
2:15 AM32 °FClear.8 mph80%30.21 "Hg10 mi
1:55 AM32 °FPassing clouds.13 mph87%30.21 "Hg10 mi
1:35 AM34 °FPassing clouds.8 mph75%30.21 "Hg10 mi
1:15 AM32 °FClear.10 mph80%30.21 "Hg10 mi
12:55 AM34 °FClear.12 mph75%30.20 "Hg10 mi
12:35 AM34 °FClear.13 mph81%30.20 "Hg10 mi
12:15 AM34 °FClear.10 mph81%30.20 "Hg10 mi
11:55 PM
Nov 27
34 °FClear.15 mph81%30.20 "Hg10 mi
11:35 PM36 °FClear.15 mph75%30.20 "Hg10 mi
11:15 PM36 °FClear.17 mph81%30.19 "Hg10 mi
10:15 PM36 °FPartly cloudy.5 mph87%30.18 "Hg10 mi
9:55 PM37 °FMostly cloudy.8 mph81%30.18 "Hg10 mi
9:35 PM37 °FMostly cloudy.6 mph81%30.18 "Hg10 mi
9:15 PM37 °FOvercast.10 mph81%30.17 "Hg10 mi
8:55 PM36 °FMostly cloudy.5 mph87%30.16 "Hg10 mi
8:35 PM37 °FPassing clouds.3 mph81%30.16 "Hg10 mi
8:15 PM37 °FMostly cloudy.6 mph81%30.15 "Hg10 mi
7:55 PM37 °FMostly cloudy.3 mph81%30.15 "Hg10 mi
7:35 PM37 °FOvercast.8 mph81%30.15 "Hg10 mi
7:15 PM37 °FOvercast.9 mph81%30.14 "Hg10 mi
6:55 PM37 °FMostly cloudy.10 mph81%30.13 "Hg10 mi
6:15 PM36 °FPassing clouds.8 mph87%30.12 "Hg10 mi
5:55 PM36 °FPassing clouds.7 mph87%30.12 "Hg10 mi
5:35 PM36 °FPassing clouds.7 mph87%30.11 "Hg10 mi
5:15 PM36 °FPassing clouds.6 mph87%30.11 "Hg10 mi
4:55 PM37 °FPassing clouds.7 mph81%30.10 "Hg10 mi
4:35 PM37 °FOvercast.7 mph81%30.09 "Hg10 mi
4:15 PM39 °FMostly cloudy.9 mph75%30.08 "Hg10 mi
3:55 PM39 °FCloudy.16 mph75%30.08 "Hg10 mi
3:35 PM41 °FLight rain. Overcast.13 mph76%30.08 "Hg10 mi
3:15 PM43 °FMostly cloudy.12 mph71%30.07 "Hg10 mi
2:55 PM41 °FMore clouds than sun.8 mph76%30.06 "Hg10 mi
2:15 PM43 °FOvercast.8 mph66%30.06 "Hg10 mi
1:55 PM43 °FPartly sunny.10 mph66%30.05 "Hg10 mi
1:35 PM43 °FBroken clouds.10 mph66%30.05 "Hg10 mi
1:15 PM43 °FBroken clouds.9 mph66%30.05 "Hg10 mi
12:55 PM43 °FScattered clouds.13 mph66%30.05 "Hg10 mi
12:15 PM43 °FPartly sunny.12 mph71%30.05 "Hg10 mi
Weather by CustomWeather, © 2014

See weather overviewHow to use our weather pages